{"data":{"norad_id":43189,"intl_designator":"2018-014K","name":"S-NET C","alt_names":[],"object_type":"PAYLOAD","status":"ACTIVE","operator":null,"country":"GER","launch_date":"2018-02-01","launch_site_code":"VOSTO","launch_vehicle":null,"mission":null,"orbit_class":"UNKNOWN","rcs_meters":null,"size_class":null,"mass_kg":null,"dimensions":null,"purposes":[],"wikipedia_slug":null,"has_3d_model":false,"image_url":null,"decayed_at":null,"tle_current":{"epoch":"2026-05-25T04:27:01.476000Z","epoch_age_seconds":66009,"freshness":"FRESH","line1":"1 43189U 18014K   26145.18543375  .00004294  00000+0  22429-3 0  9993","line2":"2 43189  97.5414  50.3829 0012043  87.5621 272.6991 15.16378064453822","mean_motion":15.16378064,"eccentricity":0.0012043,"inclination_deg":97.5414,"raan_deg":50.3829,"arg_perigee_deg":87.5621,"mean_anomaly_deg":272.6991,"bstar":0.00022429,"rev_number":45382,"period_min":94.96312523814,"perigee_km":508.49447408564,"apogee_km":525.10161463349,"semimajor_km":6894.9350443596,"source":"CELESTRAK","updated_at":"2026-05-25T13:37:55.790887Z"}}}